Regional Weather Roundup
Issued by NWS Cleveland, OH

Home | Current Version | Previous Version | Text Only | Print | Product List | Glossary On
Versions: 1 2 3 4 5 6 7 8 9 10 11 12 13 14 15 16 17 18 19 20 21 22 23 24 25 26 27 28 29 30 31 32 33 34 35 36 37 38 39 40 41 42 43 44 45 46 47 48 49 50
000
ASUS41 KCLE 311210
RWRCLE
OHIO REGIONAL WEATHER ROUNDUP
NATIONAL WEATHER SERVICE CLEVELAND, OH
800 AM EDT FRI OCT 31 2014

NOTE: "FAIR" INDICATES FEW OR NO CLOUDS BELOW 12,000 FEET WITH NO
SIGNIFICANT WEATHER AND/OR OBSTRUCTIONS TO VISIBILITY.

OHZ001>008-015>018-024>027-034-035-043-044-311300-
   NORTHWEST OHIO

CITY           SKY/WX    TMP DP  RH WIND       PRES   REMARKS
DEFIANCE       LGT RAIN  44  37  76 SW5       29.92F
FINDLAY        CLOUDY    44  36  73 SW8       29.92F
TOLEDO EXPRESS LGT RAIN  43  36  76 SW7       29.90F
TOLEDO EXEC    CLOUDY    44  35  70 SW8       29.92F
LIMA           NOT AVBL
$$

OHZ009>014-019>023-028>033-038-089-311300-
   NORTHEAST OHIO

CITY           SKY/WX    TMP DP  RH WIND       PRES   REMARKS
CLE-HOPKINS    CLOUDY    44  36  73 S6        29.96F
CLE-LAKEFRONT  CLOUDY   N/A N/A N/A SW9       29.95
CUY CO. ARPT   CLOUDY    45  37  76 SW9       29.94F
LORAIN-ELYRIA  CLOUDY    43  36  76 SW6       29.94F
ASHTABULA      CLOUDY    42  38  85 S6        29.95S
AKRON-CANTON   CLOUDY    43  38  82 SW5       29.94F
WOOSTER        CLOUDY    43  37  79 S5        29.94F
MANSFIELD      CLOUDY    41  35  79 SW7       29.93F
YOUNGSTOWN     CLOUDY    43  37  79 S5        29.94F
$$

OHZ042-051>053-060>062-070>072-077>081-311300-
  SOUTHWEST OHIO

CITY           SKY/WX    TMP DP  RH WIND       PRES   REMARKS
CINC-COVINGTON CLOUDY    44  40  85 W3        29.97F
CINC-LUNKEN    CLOUDY    43  40  89 S3        29.99F
HAMILTON       MOCLDY    37  36  96 CALM      29.99S FOG
DAYTON         CLOUDY    43  37  79 SW6       29.96F
WRIGHT-PAT AFB CLOUDY    42  38  86 S5        29.96F
DAYTON GENERAL PTCLDY    39  37  92 S3        29.95F
WILMINGTON     CLOUDY    40  37  89 S3        29.96F
$$

OHZ036-037-039>041-045>050-054>059-063>069-073>076-082>088-311300-
  CENTRAL AND SOUTHEAST OHIO

CITY           SKY/WX    TMP DP  RH WIND       PRES   REMARKS
COLUMBUS       CLOUDY    41  36  82 CALM      29.96F
OSU AIRPORT    CLOUDY    43  36  76 SW7       29.95F
BOLTON FIELD   CLOUDY    41  37  87 CALM      29.96F
RICKENBACK AFB DRIZZLE   39  37  94 S3        29.96F
NEWARK         CLOUDY    43  36  76 S5        29.96F
MARION         CLOUDY    42  35  76 S7        29.94F
LANCASTER      CLOUDY    42  38  85 S5        29.97F
ZANESVILLE     LGT RAIN  41  37  86 S3        29.97F
NEW PHILLY     CLOUDY    44  39  82 CALM      29.97S
$$



USA.gov is the U.S. government's official web portal to all federal, state and local government web resources and services.